Year,Month,Day,Hour,Minute,Value (Times are PST for temperature in C)
2010,07,03,12,46,12.30
2010,07,03,12,47,12.30
2010,07,03,12,48,12.30
2010,07,03,12,49,12.40
2010,07,03,12,50,12.40
2010,07,03,12,51,12.40
2010,07,03,12,52,12.40
2010,07,03,12,53,12.40
2010,07,03,12,54,12.40
2010,07,03,12,55,12.40
2010,07,03,12,56,12.40
2010,07,03,12,57,12.40
2010,07,03,12,58,12.40
2010,07,03,12,59,12.40
2010,07,03,13,00,12.40
2010,07,03,13,01,12.40
2010,07,03,13,02,12.40
2010,07,03,13,03,12.40
2010,07,03,13,04,12.40
2010,07,03,13,05,12.40
2010,07,03,13,06,12.40
2010,07,03,13,07,12.40
2010,07,03,13,08,12.40
2010,07,03,13,09,12.40
2010,07,03,13,10,12.40
2010,07,03,13,11,12.40
2010,07,03,13,12,12.40
2010,07,03,13,13,12.40
2010,07,03,13,14,12.40
2010,07,03,13,15,12.40
2010,07,03,13,16,12.40
2010,07,03,13,17,12.40
2010,07,03,13,18,12.40
2010,07,03,13,19,12.50
2010,07,03,13,20,12.50
2010,07,03,13,21,12.50
2010,07,03,13,22,12.50
2010,07,03,13,23,12.50
2010,07,03,13,24,12.50
2010,07,03,13,25,12.50
2010,07,03,13,26,12.50
2010,07,03,13,27,12.50
2010,07,03,13,28,12.50
2010,07,03,13,29,12.50
2010,07,03,13,30,12.50
2010,07,03,13,31,12.50
2010,07,03,13,32,12.50
2010,07,03,13,33,12.50
2010,07,03,13,34,12.80
2010,07,03,13,35,12.80
2010,07,03,13,36,12.80
2010,07,03,13,37,12.80
2010,07,03,13,38,12.80
2010,07,03,13,39,12.80
2010,07,03,13,40,12.80
2010,07,03,13,41,12.80
2010,07,03,13,42,12.80
2010,07,03,13,43,12.80
2010,07,03,13,44,12.80
2010,07,03,13,45,12.80
2010,07,03,13,46,12.80
2010,07,03,13,47,12.80
2010,07,03,13,48,12.80
2010,07,03,13,49,12.90
2010,07,03,13,50,12.90
2010,07,03,13,51,12.90
2010,07,03,13,52,12.90
2010,07,03,13,53,12.90
2010,07,03,13,54,12.90
2010,07,03,13,55,12.90
2010,07,03,13,56,12.90
2010,07,03,13,57,12.90
2010,07,03,13,58,12.90
2010,07,03,13,59,12.90
2010,07,03,14,00,12.90
2010,07,03,14,01,12.90
2010,07,03,14,02,12.90
2010,07,03,14,03,12.90
2010,07,03,14,04,12.90
2010,07,03,14,05,12.90
2010,07,03,14,06,12.90
2010,07,03,14,07,12.90
2010,07,03,14,08,12.90
2010,07,03,14,09,12.90
2010,07,03,14,10,12.90
2010,07,03,14,11,12.90
2010,07,03,14,12,12.90
2010,07,03,14,13,12.90
2010,07,03,14,14,12.90
2010,07,03,14,15,12.90
2010,07,03,14,16,12.90
2010,07,03,14,17,12.90
2010,07,03,14,18,12.90
2010,07,03,14,19,12.90
2010,07,03,14,20,12.90
2010,07,03,14,21,12.90
2010,07,03,14,22,12.90
2010,07,03,14,23,12.90
2010,07,03,14,24,12.90
2010,07,03,14,25,12.90
2010,07,03,14,26,12.90
2010,07,03,14,27,12.90
2010,07,03,14,28,12.90
2010,07,03,14,29,12.90
2010,07,03,14,30,12.90
2010,07,03,14,31,12.90
2010,07,03,14,32,12.90
2010,07,03,14,33,12.90
2010,07,03,14,34,13.30
2010,07,03,14,35,13.30
2010,07,03,14,36,13.30
2010,07,03,14,37,13.30
2010,07,03,14,38,13.30
2010,07,03,14,39,13.30
2010,07,03,14,40,13.30
2010,07,03,14,41,13.30
2010,07,03,14,42,13.30
2010,07,03,14,43,13.30
2010,07,03,14,44,13.30
2010,07,03,14,45,13.30
2010,07,03,14,46,13.30
2010,07,03,14,47,13.30
2010,07,03,14,48,13.30
2010,07,03,14,49,13.10
2010,07,03,14,50,13.10
2010,07,03,14,51,13.10
2010,07,03,14,52,13.10
2010,07,03,14,53,13.10
2010,07,03,14,54,13.10
2010,07,03,14,55,13.10
2010,07,03,14,56,13.10
2010,07,03,14,57,13.10
2010,07,03,14,58,13.10
2010,07,03,14,59,13.10
2010,07,03,15,00,13.10
2010,07,03,15,01,13.10
2010,07,03,15,02,13.10
2010,07,03,15,03,13.10
2010,07,03,15,04,13.00
2010,07,03,15,05,13.00
2010,07,03,15,06,13.00
2010,07,03,15,07,13.00
2010,07,03,15,08,13.00
2010,07,03,15,09,13.00
2010,07,03,15,10,13.00
2010,07,03,15,11,13.00
2010,07,03,15,12,13.00
2010,07,03,15,13,13.00
2010,07,03,15,14,13.00
2010,07,03,15,15,13.00
2010,07,03,15,16,13.00
2010,07,03,15,17,13.00
2010,07,03,15,18,13.00
2010,07,03,15,19,13.30
2010,07,03,15,20,13.30
2010,07,03,15,21,13.30
2010,07,03,15,22,13.30
2010,07,03,15,23,13.30
2010,07,03,15,24,13.30
2010,07,03,15,25,13.30
2010,07,03,15,26,13.30
2010,07,03,15,27,13.30
2010,07,03,15,28,13.30
2010,07,03,15,29,13.30
2010,07,03,15,30,13.30
2010,07,03,15,31,13.30
2010,07,03,15,32,13.30
2010,07,03,15,33,13.30
2010,07,03,15,34,13.30
2010,07,03,15,35,13.30
2010,07,03,15,36,13.30
2010,07,03,15,37,13.30
2010,07,03,15,38,13.30
2010,07,03,15,39,13.30
2010,07,03,15,40,13.30
2010,07,03,15,41,13.30
2010,07,03,15,42,13.30
2010,07,03,15,43,13.30
2010,07,03,15,44,13.30
2010,07,03,15,45,13.30
2010,07,03,15,46,13.30
2010,07,03,15,47,13.30
2010,07,03,15,48,13.30
2010,07,03,15,49,13.70
2010,07,03,15,50,13.70
2010,07,03,15,51,13.70
2010,07,03,15,52,13.70
2010,07,03,15,53,13.70
2010,07,03,15,54,13.70
2010,07,03,15,55,13.70
2010,07,03,15,56,13.70
2010,07,03,15,57,13.70
2010,07,03,15,58,13.70
2010,07,03,15,59,13.70
2010,07,03,16,00,13.70
2010,07,03,16,01,13.70
2010,07,03,16,02,13.70
2010,07,03,16,03,13.70
2010,07,03,16,04,13.30
2010,07,03,16,05,13.30
2010,07,03,16,06,13.30
2010,07,03,16,07,13.30
2010,07,03,16,08,13.30
2010,07,03,16,09,13.30
2010,07,03,16,10,13.30
2010,07,03,16,11,13.30
2010,07,03,16,12,13.30
2010,07,03,16,13,13.30
2010,07,03,16,14,13.30
2010,07,03,16,15,13.30
2010,07,03,16,16,13.30
2010,07,03,16,17,13.30
2010,07,03,16,18,13.30
2010,07,03,16,19,13.60
2010,07,03,16,20,13.60
2010,07,03,16,21,13.60
2010,07,03,16,22,13.60
2010,07,03,16,23,13.60
2010,07,03,16,24,13.60
2010,07,03,16,25,13.60
2010,07,03,16,26,13.60
2010,07,03,16,27,13.60
2010,07,03,16,28,13.60
2010,07,03,16,29,13.60
2010,07,03,16,30,13.60
2010,07,03,16,31,13.60
2010,07,03,16,32,13.60
2010,07,03,16,33,13.60
2010,07,03,16,34,13.20
2010,07,03,16,35,13.20
2010,07,03,16,36,13.20
2010,07,03,16,37,13.20
2010,07,03,16,38,13.20
2010,07,03,16,39,13.20
2010,07,03,16,40,13.20
2010,07,03,16,41,13.20
2010,07,03,16,42,13.20
2010,07,03,16,43,13.20
2010,07,03,16,44,13.20
2010,07,03,16,45,13.20
2010,07,03,16,46,13.20
2010,07,03,16,47,13.20
2010,07,03,16,48,13.20
2010,07,03,16,49,13.10
2010,07,03,16,50,13.10
2010,07,03,16,51,13.10
2010,07,03,16,52,13.10
2010,07,03,16,53,13.10
2010,07,03,16,54,13.10
2010,07,03,16,55,13.10
2010,07,03,16,56,13.10
2010,07,03,16,57,13.10
2010,07,03,16,58,13.10
2010,07,03,16,59,13.10
2010,07,03,17,00,13.10
2010,07,03,17,01,13.10
2010,07,03,17,02,13.10
2010,07,03,17,03,13.10
2010,07,03,17,04,12.70
2010,07,03,17,05,12.70
2010,07,03,17,06,12.70
2010,07,03,17,07,12.70
2010,07,03,17,08,12.70
2010,07,03,17,09,12.70
2010,07,03,17,10,12.70
2010,07,03,17,11,12.70
2010,07,03,17,12,12.70
2010,07,03,17,13,12.70
2010,07,03,17,14,12.70
2010,07,03,17,15,12.70
2010,07,03,17,16,12.70
2010,07,03,17,17,12.70
2010,07,03,17,18,12.70
2010,07,03,17,19,13.00
2010,07,03,17,20,13.00
2010,07,03,17,21,13.00
2010,07,03,17,22,13.00
2010,07,03,17,23,13.00
2010,07,03,17,24,13.00
2010,07,03,17,25,13.00
2010,07,03,17,26,13.00
2010,07,03,17,27,13.00
2010,07,03,17,28,13.00
2010,07,03,17,29,13.00
2010,07,03,17,30,13.00
2010,07,03,17,31,13.00
2010,07,03,17,32,13.00
2010,07,03,17,33,13.00
2010,07,03,17,34,13.10
2010,07,03,17,35,13.10
2010,07,03,17,36,13.10
2010,07,03,17,37,13.10
2010,07,03,17,38,13.10
2010,07,03,17,39,13.10
2010,07,03,17,40,13.10
2010,07,03,17,41,13.10
2010,07,03,17,42,13.10
2010,07,03,17,43,13.10
2010,07,03,17,44,13.10
2010,07,03,17,45,13.10
2010,07,03,17,46,13.10
2010,07,03,17,47,13.10
2010,07,03,17,48,13.10
2010,07,03,17,49,13.20
2010,07,03,17,50,13.20
2010,07,03,17,51,13.20
2010,07,03,17,52,13.20
2010,07,03,17,53,13.20
2010,07,03,17,54,13.20
2010,07,03,17,55,13.20
2010,07,03,17,56,13.20
2010,07,03,17,57,13.20
2010,07,03,17,58,13.20
2010,07,03,17,59,13.20
2010,07,03,18,00,13.20
2010,07,03,18,01,13.20
2010,07,03,18,02,13.20
2010,07,03,18,03,13.20
2010,07,03,18,04,13.10
2010,07,03,18,05,13.10
2010,07,03,18,06,13.10
2010,07,03,18,07,13.10
2010,07,03,18,08,13.10
2010,07,03,18,09,13.10
2010,07,03,18,10,13.10
2010,07,03,18,11,13.10
2010,07,03,18,12,13.10
2010,07,03,18,13,13.10
2010,07,03,18,14,13.10
2010,07,03,18,15,13.10
2010,07,03,18,16,13.10
2010,07,03,18,17,13.10
2010,07,03,18,18,13.10
2010,07,03,18,19,12.70
2010,07,03,18,20,12.70
2010,07,03,18,21,12.70
2010,07,03,18,22,12.70
2010,07,03,18,23,12.70
2010,07,03,18,24,12.70
2010,07,03,18,25,12.70
2010,07,03,18,26,12.70
2010,07,03,18,27,12.70
2010,07,03,18,28,12.70
2010,07,03,18,29,12.70
2010,07,03,18,30,12.70
2010,07,03,18,31,12.70
2010,07,03,18,32,12.70
2010,07,03,18,33,12.70
2010,07,03,18,34,12.60
2010,07,03,18,35,12.60
2010,07,03,18,36,12.60
2010,07,03,18,37,12.60
2010,07,03,18,38,12.60
2010,07,03,18,39,12.60
2010,07,03,18,40,12.60
2010,07,03,18,41,12.60
2010,07,03,18,42,12.60
2010,07,03,18,43,12.60
2010,07,03,18,44,12.60
2010,07,03,18,45,12.60
2010,07,03,18,46,12.60
2010,07,03,18,47,12.60
2010,07,03,18,48,12.60
2010,07,03,18,49,12.70
2010,07,03,18,50,12.70
2010,07,03,18,51,12.70
2010,07,03,18,52,12.70
2010,07,03,18,53,12.70
2010,07,03,18,54,12.70
2010,07,03,18,55,12.70
2010,07,03,18,56,12.70
2010,07,03,18,57,12.70
2010,07,03,18,58,12.70
2010,07,03,18,59,12.70
2010,07,03,19,00,12.70
2010,07,03,19,01,12.70
2010,07,03,19,02,12.70
2010,07,03,19,03,12.70
2010,07,03,19,04,12.80
2010,07,03,19,05,12.80
2010,07,03,19,06,12.80
2010,07,03,19,07,12.80
2010,07,03,19,08,12.80
2010,07,03,19,09,12.80
2010,07,03,19,10,12.80
2010,07,03,19,11,12.80
2010,07,03,19,12,12.80
2010,07,03,19,13,12.80
2010,07,03,19,14,12.80
2010,07,03,19,15,12.80
2010,07,03,19,16,12.80
2010,07,03,19,17,12.80
2010,07,03,19,18,12.80
2010,07,03,19,19,12.70
2010,07,03,19,20,12.70
2010,07,03,19,21,12.70
2010,07,03,19,22,12.70
2010,07,03,19,23,12.70
2010,07,03,19,24,12.70
2010,07,03,19,25,12.70
2010,07,03,19,26,12.70
2010,07,03,19,27,12.70
2010,07,03,19,28,12.70
2010,07,03,19,29,12.70
2010,07,03,19,30,12.70
2010,07,03,19,31,12.70
2010,07,03,19,32,12.70
2010,07,03,19,33,12.70
2010,07,03,19,34,12.80
2010,07,03,19,35,12.80
2010,07,03,19,36,12.80
2010,07,03,19,37,12.80
2010,07,03,19,38,12.80
2010,07,03,19,39,12.80
2010,07,03,19,40,12.80
2010,07,03,19,41,12.80
2010,07,03,19,42,12.80
2010,07,03,19,43,12.80
2010,07,03,19,44,12.80
2010,07,03,19,45,12.80
2010,07,03,19,46,12.80
2010,07,03,19,47,12.80
2010,07,03,19,48,12.80
2010,07,03,19,49,13.10
2010,07,03,19,50,13.10
2010,07,03,19,51,13.10
2010,07,03,19,52,13.10
2010,07,03,19,53,13.10
2010,07,03,19,54,13.10
2010,07,03,19,55,13.10
2010,07,03,19,56,13.10
2010,07,03,19,57,13.10
2010,07,03,19,58,13.10
2010,07,03,19,59,13.10
2010,07,03,20,00,13.10
2010,07,03,20,01,13.10
2010,07,03,20,02,13.10
2010,07,03,20,03,13.10
2010,07,03,20,04,12.70
2010,07,03,20,05,12.70
2010,07,03,20,06,12.70
2010,07,03,20,07,12.70
2010,07,03,20,08,12.70
2010,07,03,20,09,12.70
2010,07,03,20,10,12.70
2010,07,03,20,11,12.70
2010,07,03,20,12,12.70
2010,07,03,20,13,12.70
2010,07,03,20,14,12.70
2010,07,03,20,15,12.70
2010,07,03,20,16,12.70
2010,07,03,20,17,12.70
2010,07,03,20,18,12.70
2010,07,03,20,19,12.50
2010,07,03,20,20,12.50
2010,07,03,20,21,12.50
2010,07,03,20,22,12.50
2010,07,03,20,23,12.50
2010,07,03,20,24,12.50
2010,07,03,20,25,12.50
2010,07,03,20,26,12.50
2010,07,03,20,27,12.50
2010,07,03,20,28,12.50
2010,07,03,20,29,12.50
2010,07,03,20,30,12.50
2010,07,03,20,31,12.50
2010,07,03,20,32,12.50
2010,07,03,20,33,12.50
2010,07,03,20,34,12.30
2010,07,03,20,35,12.30
2010,07,03,20,36,12.30
2010,07,03,20,37,12.30
2010,07,03,20,38,12.30
2010,07,03,20,39,12.30
2010,07,03,20,40,12.30
2010,07,03,20,41,12.30
2010,07,03,20,42,12.30
2010,07,03,20,43,12.30
2010,07,03,20,44,12.30
2010,07,03,20,45,12.30
2010,07,03,20,46,12.30
2010,07,03,20,47,12.30
2010,07,03,20,48,12.30
2010,07,03,20,49,12.10
2010,07,03,20,50,12.10
2010,07,03,20,51,12.10
2010,07,03,20,52,12.10
2010,07,03,20,53,12.10
2010,07,03,20,54,12.10
2010,07,03,20,55,12.10
2010,07,03,20,56,12.10
2010,07,03,20,57,12.10
2010,07,03,20,58,12.10
2010,07,03,20,59,12.10
2010,07,03,21,00,12.10
2010,07,03,21,01,12.10
2010,07,03,21,02,12.10
2010,07,03,21,03,12.10
2010,07,03,21,04,11.70
2010,07,03,21,05,11.70
2010,07,03,21,06,11.70
2010,07,03,21,07,11.70
2010,07,03,21,08,11.70
2010,07,03,21,09,11.70
2010,07,03,21,10,11.70
2010,07,03,21,11,11.70
2010,07,03,21,12,11.70
2010,07,03,21,13,11.70
2010,07,03,21,14,11.70
2010,07,03,21,15,11.70
2010,07,03,21,16,11.70
2010,07,03,21,17,11.70
2010,07,03,21,18,11.70
2010,07,03,21,19,11.70
2010,07,03,21,20,11.70
2010,07,03,21,21,11.70
2010,07,03,21,22,11.70
2010,07,03,21,23,11.70
2010,07,03,21,24,11.70
2010,07,03,21,25,11.70
2010,07,03,21,26,11.70
2010,07,03,21,27,11.70
2010,07,03,21,28,11.70
2010,07,03,21,29,11.70
2010,07,03,21,30,11.70
2010,07,03,21,31,11.70
2010,07,03,21,32,11.70
2010,07,03,21,33,11.70
2010,07,03,21,34,11.90
2010,07,03,21,35,11.90
2010,07,03,21,36,11.90
2010,07,03,21,37,11.90
2010,07,03,21,38,11.90
2010,07,03,21,39,11.90
2010,07,03,21,40,11.90
2010,07,03,21,41,11.90
2010,07,03,21,42,11.90
2010,07,03,21,43,11.90
2010,07,03,21,44,11.90
2010,07,03,21,45,11.90
2010,07,03,21,46,11.90
2010,07,03,21,47,11.90
2010,07,03,21,48,11.90
2010,07,03,21,49,12.10
2010,07,03,21,50,12.10
2010,07,03,21,51,12.10
2010,07,03,21,52,12.10
2010,07,03,21,53,12.10
2010,07,03,21,54,12.10
2010,07,03,21,55,12.10
2010,07,03,21,56,12.10
2010,07,03,21,57,12.10
2010,07,03,21,58,12.10
2010,07,03,21,59,12.10
2010,07,03,22,00,12.10
2010,07,03,22,01,12.10
2010,07,03,22,02,12.10
2010,07,03,22,03,12.10
2010,07,03,22,04,12.10
2010,07,03,22,05,12.10
2010,07,03,22,06,12.10
2010,07,03,22,07,12.10
2010,07,03,22,08,12.10
2010,07,03,22,09,12.10
2010,07,03,22,10,12.10
2010,07,03,22,11,12.10
2010,07,03,22,12,12.10
2010,07,03,22,13,12.10
2010,07,03,22,14,12.10
2010,07,03,22,15,12.10
2010,07,03,22,16,12.10
2010,07,03,22,17,12.10
2010,07,03,22,18,12.10
2010,07,03,22,19,11.70
2010,07,03,22,20,11.70
2010,07,03,22,21,11.70
2010,07,03,22,22,11.70
2010,07,03,22,23,11.70
2010,07,03,22,24,11.70
2010,07,03,22,25,11.70
2010,07,03,22,26,11.70
2010,07,03,22,27,11.70
2010,07,03,22,28,11.70
2010,07,03,22,29,11.70
2010,07,03,22,30,11.70
2010,07,03,22,31,11.70
2010,07,03,22,32,11.70
2010,07,03,22,33,11.70
2010,07,03,22,34,11.50
2010,07,03,22,35,11.50
2010,07,03,22,36,11.50
2010,07,03,22,37,11.50
2010,07,03,22,38,11.50
2010,07,03,22,39,11.50
2010,07,03,22,40,11.50
2010,07,03,22,41,11.50
2010,07,03,22,42,11.50
2010,07,03,22,43,11.50
2010,07,03,22,44,11.50
2010,07,03,22,45,11.50
2010,07,03,22,46,11.50
2010,07,03,22,47,11.50
2010,07,03,22,48,11.50
2010,07,03,22,49,11.40
2010,07,03,22,50,11.40
2010,07,03,22,51,11.40
2010,07,03,22,52,11.40
2010,07,03,22,53,11.40
2010,07,03,22,54,11.40
2010,07,03,22,55,11.40
2010,07,03,22,56,11.40
2010,07,03,22,57,11.40
2010,07,03,22,58,11.40
2010,07,03,22,59,11.40
2010,07,03,23,00,11.40
2010,07,03,23,01,11.40
2010,07,03,23,02,11.40
2010,07,03,23,03,11.40
2010,07,03,23,04,11.40
2010,07,03,23,05,11.40
2010,07,03,23,06,11.40
2010,07,03,23,07,11.40
2010,07,03,23,08,11.40
2010,07,03,23,09,11.40
2010,07,03,23,10,11.40
2010,07,03,23,11,11.40
2010,07,03,23,12,11.40
2010,07,03,23,13,11.40
2010,07,03,23,14,11.40
2010,07,03,23,15,11.40
2010,07,03,23,16,11.40
2010,07,03,23,17,11.40
2010,07,03,23,18,11.40
2010,07,03,23,19,11.20
2010,07,03,23,20,11.20
2010,07,03,23,21,11.20
2010,07,03,23,22,11.20
2010,07,03,23,23,11.20
2010,07,03,23,24,11.20
2010,07,03,23,25,11.20
2010,07,03,23,26,11.20
2010,07,03,23,27,11.20
2010,07,03,23,28,11.20
2010,07,03,23,29,11.20
2010,07,03,23,30,11.20
2010,07,03,23,31,11.20
2010,07,03,23,32,11.20
2010,07,03,23,33,11.20
2010,07,03,23,34,11.20
2010,07,03,23,35,11.20
2010,07,03,23,36,11.20
2010,07,03,23,37,11.20
2010,07,03,23,38,11.20
2010,07,03,23,39,11.20
2010,07,03,23,40,11.20
2010,07,03,23,41,11.20
2010,07,03,23,42,11.20
2010,07,03,23,43,11.20
2010,07,03,23,44,11.20
2010,07,03,23,45,11.20
2010,07,03,23,46,11.20
2010,07,03,23,47,11.20
2010,07,03,23,48,11.20
2010,07,03,23,49,11.20
2010,07,03,23,50,11.20
2010,07,03,23,51,11.20
2010,07,03,23,52,11.20
2010,07,03,23,53,11.20
2010,07,03,23,54,11.20
2010,07,03,23,55,11.20
2010,07,03,23,56,11.20
2010,07,03,23,57,11.20
2010,07,03,23,58,11.20
2010,07,03,23,59,11.20
